User: anonymous   Login
Location: Morosaglia
(42.4360°N, 9.3069°E)
Time: 16:01:22
(UTC+00:00)
Language:

STARLINK-40 - Orbit

View from above orbital plane
View from above orbital plane
View from above satellite
View from above satellite

Ground track
Ground track

The orbit data is extracted from the following two-line orbital elements,

1 44258U 19029Z   20228.58335648  .01191371  70470-3  27136-2 0  9995
2 44258  52.9968 279.6592 0001521  46.1638 263.2570 15.97006865 68344
Epoch (UTC): 15 August 2020 14:00:02
Eccentricity: 0.0001521
inclination: 52.9968°
perigee height: 282 km
apogee height: 284 km
right ascension of ascending node: 279.6592°
argument of perigee: 46.1638°
revolutions per day: 15.97006865
mean anomaly at epoch: 263.2570°
orbit number at epoch: 6834

The dashed part of the orbit path shows where the satellite is in the earth's shadow,  

DLR